This is the latest recevied weather packets stored in our database for station/object KC3DGM. If no packets are shown the sender has not sent any weather packets the latest 10 day(s).
| Time | Temp. | Humidity | Pressure | Rain* | Wind** | Luminosity | Snow |
|---|---|---|---|---|---|---|---|
| 1777836751 | 15° C | 47% | 984.5 hPa | 0 mm | - | 158 W/m² | - |
| 1777836447 | 14.44° C | 44% | 984.6 hPa | 0 mm | - | 329 W/m² | - |
| 1777836142 | 14.44° C | 45% | 984.5 hPa | 0 mm | - | 148 W/m² | - |
| 1777835840 | 15° C | 41% | 984.6 hPa | 0 mm | - | 174 W/m² | - |
| 1777835537 | 15° C | 44% | 984.6 hPa | 0 mm | - | 245 W/m² | - |
| 1777835234 | 15° C | 44% | 984.8 hPa | 0 mm | - | 226 W/m² | - |
| 1777834930 | 15° C | 43% | 984.9 hPa | 0 mm | - | 273 W/m² | - |
| 1777834628 | 15° C | 44% | 984.9 hPa | 0 mm | - | 421 W/m² | - |
| 1777834323 | 14.44° C | 46% | 984.6 hPa | 0 mm | - | 569 W/m² | - |
| 1777834017 | 14.44° C | 50% | 985.1 hPa | 0 mm | - | 689 W/m² | - |
| 1777833714 | 13.89° C | 48% | 985.1 hPa | 0 mm | - | 383 W/m² | - |
| 1777833410 | 13.89° C | 45% | 985.2 hPa | 0 mm | - | 157 W/m² | - |
| 1777833108 | 13.89° C | 47% | 985.3 hPa | 0 mm | - | 544 W/m² | - |
| 1777832806 | 14.44° C | 45% | 985.3 hPa | 0 mm | - | 216 W/m² | - |
| 1777832504 | 15° C | 47% | 985.5 hPa | 0 mm | - | 187 W/m² | - |
| 1777832201 | 15° C | 45% | 985.1 hPa | 0 mm | - | 690 W/m² | - |
| 1777831898 | 13.89° C | 49% | 985.1 hPa | 0 mm | - | 783 W/m² | - |
| 1777831594 | 13.33° C | 49% | 985.3 hPa | 0 mm | - | 186 W/m² | - |
| 1777831293 | 12.78° C | 48% | 985.4 hPa | 0 mm | - | 176 W/m² | - |
| 1777830989 | 12.78° C | 47% | 985.6 hPa | 0 mm | - | 140 W/m² | - |
| 1777830686 | 13.33° C | 46% | 985.6 hPa | 0 mm | - | 157 W/m² | - |
| 1777830383 | 13.89° C | 45% | 985.6 hPa | 0 mm | - | 259 W/m² | - |
| 1777830080 | 13.33° C | 49% | 985.7 hPa | 0 mm | - | 839 W/m² | - |
| 1777829775 | 13.89° C | 46% | 985.8 hPa | 0 mm | - | 481 W/m² | - |
| 1777829472 | 13.33° C | 45% | 986.1 hPa | 0 mm | - | 623 W/m² | - |
* Rain latest hour (hover to see other rain measurements)
** Current wind speed in m/s (hover to see current wind gust speed)